User: anonymous   Login
Location: Cheyres
(46.8153°N, 6.7877°E)
Time: 11:15:40
(UTC+00:00)
Language:

UNISAT 6 - Orbit

View from above orbital plane
View from above orbital plane
View from above satellite
View from above satellite

Ground track
Ground track

The orbit data is extracted from the following two-line orbital elements,

1 40012U 14033C   22180.86705411  .00000739  00000-0  11413-3 0  9995
2 40012  97.6616   8.1672 0058807 118.2033 242.5133 14.74934225431812
Epoch (UTC): 29 June 2022 20:48:33
Eccentricity: 0.0058807
inclination: 97.6616°
perigee height: 604 km
apogee height: 686 km
right ascension of ascending node: 8.1672°
argument of perigee: 118.2033°
revolutions per day: 14.74934225
mean anomaly at epoch: 242.5133°
orbit number at epoch: 43181

The dashed part of the orbit path shows where the satellite is in the earth's shadow,  

DLR